User: anonymous   Login
Location: Strawberry
(45.6646°N, 111.9596°W)
Time: 13:07:55
(UTC+00:00)
Language:

PRISM - Orbit

View from above orbital plane
View from above orbital plane
View from above satellite
View from above satellite

Ground track
Ground track

The orbit data is extracted from the following two-line orbital elements,

1 33493U 09002B   22341.71455061  .00006370  00000-0  49405-3 0  9995
2 33493  98.2497 338.5603 0015714 335.2597  24.7871 15.01677018754969
Epoch (UTC): 07 December 2022 17:08:57
Eccentricity: 0.0015714
inclination: 98.2497°
perigee height: 551 km
apogee height: 572 km
right ascension of ascending node: 338.5603°
argument of perigee: 335.2597°
revolutions per day: 15.01677018
mean anomaly at epoch: 24.7871°
orbit number at epoch: 75496

The dashed part of the orbit path shows where the satellite is in the earth's shadow,  

DLR